Location: ??????????
(44.2167°N, 135.5333°E)
Time: 14:27:39
(UTC+00:00)

CZ-4C R/B - Pass Details

Date: 15 June 2025
Orbit: 425 x 534 km, 98.0° (Epoch: 15 July)

Event Time Altitude Azimuth Distance (km) Brightness Sun altitude
Rises 12:56:29 0° 25° (NNE) 2,399 7.1 -16.9°
Reaches altitude 10° 12:58:45 10° 39° (NE) 1,525 5.9 -17.1°
Enters shadow 13:01:08 24° 86° (E) 928 4.2 -17.3°
